Hickory, NC

9:04 AM EST on November 22, 2017 (GMT -0500)
Hickory Regional

Weather History for KHKY - March, 2013

Change the Weather History Date:

Sunday, March 17, 2013

  Actual Average Record
Temperature  
Mean Temperature 55 °F -  
Max Temperature 69 °F 59 °F 79 °F (1982)
Min Temperature 41 °F 35 °F 21 °F (1988)
Degree Days  
Heating Degree Days 10    
Growing Degree Days 5 (Base 50)    
Moisture  
Dew Point 43 °F    
Average Humidity 66    
Maximum Humidity 86    
Minimum Humidity 48    
Precipitation  
Precipitation 0.00 in - - ()
Sea Level Pressure  
Sea Level Pressure 29.93 in    
Wind  
Wind Speed 5 mph (ENE)    
Max Wind Speed 14 mph    
Max Gust Speed 23 mph    
Visibility 10 miles    
Events      
Averages and records for this station are not official NWS values.
T = Trace of Precipitation, MM = Missing Value Source: NWS Daily Summary

Daily Weather History Graph

Daily Weather History Graph

Search for Another Location

Airport or City:

Trip Planner

Search our weather history database for the weather conditions in past years. The results will help you decide how hot, cold, wet, or windy it might be!

Date:

Astronomy

Mar. 17, 2013 Rise Set
Actual Time 7:33 AM EDT 7:34 PM EDT
Civil Twilight 7:07 AM EDT 8:00 PM EDT
Nautical Twilight 6:38 AM EDT 8:30 PM EDT
Astronomical Twilight 6:08 AM EDT 9:00 PM EDT
Moon 10:55 AM EDT (3/17) 12:31 AM EDT (3/17)
Length of Visible Light 12h 52m
Length of Day
12h 01m
Waxing Crescent, 31% of the Moon is Illuminated
Mar 17
Waxing Crescent
Mar 19
First Quarter
Mar 27
Full
Apr 3
Last Quarter
Apr 10
New

Hourly Weather History & Observations

Time (EDT) Temp. Windchill Dew Point Humidity Pressure Visibility Wind Dir Wind Speed Gust Speed Precip Events Conditions
12:53 AM 63.0 °F - 44.1 °F 50% 29.81 in 10.0 mi Calm Calm - N/A   Partly Cloudy
1:53 AM 60.1 °F - 45.0 °F 57% 29.81 in 10.0 mi Calm Calm - N/A   Clear
2:53 AM 57.9 °F - 44.1 °F 60% 29.82 in 10.0 mi Calm Calm - N/A   Clear
3:53 AM 57.9 °F - 44.1 °F 60% 29.83 in 10.0 mi Calm Calm - N/A   Clear
4:53 AM 55.9 °F - 44.1 °F 64% 29.82 in 10.0 mi SSE 3.5 mph - N/A   Mostly Cloudy
5:53 AM 55.9 °F - 44.1 °F 64% 29.83 in 10.0 mi Calm Calm - N/A   Scattered Clouds
6:53 AM 54.0 °F - 44.1 °F 69% 29.85 in 10.0 mi Calm Calm - N/A   Clear
7:53 AM 51.1 °F - 44.1 °F 77% 29.86 in 10.0 mi Calm Calm - N/A   Clear
8:53 AM 55.9 °F - 46.0 °F 69% 29.89 in 10.0 mi Calm Calm - N/A   Clear
9:53 AM 59.0 °F - 45.0 °F 60% 29.89 in 10.0 mi Calm Calm - N/A   Scattered Clouds
10:53 AM 62.1 °F - 46.9 °F 58% 29.91 in 10.0 mi NE 5.8 mph - N/A   Clear
11:53 AM 64.9 °F - 45.0 °F 48% 29.91 in 10.0 mi East 8.1 mph - N/A   Mostly Cloudy
12:53 PM 68.0 °F - 48.9 °F 50% 29.90 in 10.0 mi ENE 11.5 mph - N/A   Mostly Cloudy
1:53 PM 66.0 °F - 51.1 °F 59% 29.90 in 10.0 mi ENE 12.7 mph 19.6 mph N/A   Partly Cloudy
2:53 PM 64.0 °F - 50.0 °F 60% 29.87 in 10.0 mi East 12.7 mph - N/A   Clear
3:53 PM 63.0 °F - 48.0 °F 58% 29.87 in 10.0 mi East 11.5 mph 19.6 mph N/A   Clear
4:53 PM 59.0 °F - 45.0 °F 60% 29.89 in 10.0 mi ENE 12.7 mph 23.0 mph N/A   Clear
5:53 PM 53.1 °F - 43.0 °F 69% 29.93 in 10.0 mi NE 13.8 mph - N/A   Clear
6:20 PM 51.8 °F - 42.8 °F 71% 29.98 in 9.0 mi ENE 12.7 mph - N/A   Mostly Cloudy
6:53 PM 50.0 °F - 41.0 °F 71% 29.95 in 9.0 mi ENE 12.7 mph - N/A   Partly Cloudy
7:22 PM 48.2 °F - 39.2 °F 71% 30.00 in 9.0 mi NE 13.8 mph - N/A   Mostly Cloudy
7:53 PM 46.9 °F - 39.0 °F 74% 29.98 in 10.0 mi NE 8.1 mph - N/A   Mostly Cloudy
8:53 PM 46.0 °F 40.2 °F 37.9 °F 73% 30.03 in 10.0 mi ENE 12.7 mph - N/A   Overcast
9:53 PM 44.1 °F 38.1 °F 37.0 °F 76% 30.06 in 10.0 mi ENE 11.5 mph - N/A   Overcast
10:17 PM 44.6 °F 39.7 °F 37.4 °F 76% 30.10 in 9.0 mi ENE 9.2 mph - N/A   Overcast
10:53 PM 43.0 °F 36.8 °F 37.0 °F 80% 30.09 in 8.0 mi NE 11.5 mph - N/A   Overcast
11:28 PM 42.8 °F 37.5 °F 37.4 °F 81% 30.12 in 8.0 mi NNE 9.2 mph - N/A   Overcast
11:53 PM 41.0 °F 34.3 °F 37.0 °F 86% 30.07 in 7.0 mi ENE 11.5 mph - N/A   Overcast